Regional Weather Roundup
Issued by NWS

Home | Current Version | Previous Version | Graphics & Text | Print | Product List | Glossary On
Versions: 1 2 3 4 5 6 7 8 9 10 11 12 13 14 15 16 17 18 19 20 21 22 23 24 25 26 27 28 29 30 31 32 33 34 35 36 37 38 39 40 41 42 43 44 45 46 47 48 49 50
000
ASUS43 KDMX 261401
RWRIA

WEATHER ROUNDUP FOR IOWA
NATIONAL WEATHER SERVICE DES MOINES IA
900 AM CDT THU APR 26 2018

NOTE: "FAIR" INDICATES FEW OR NO CLOUDS BELOW 12,000 FEET WITH NO
SIGNIFICANT WEATHER AND/OR OBSTRUCTIONS TO VISIBILITY.

* - THESE STATIONS ARE NOT NWS STATIONS...THUS NOT UNDER NWS
QUALITY CONTROL.  THEY ALSO DO NOT REPORT WEATHER SUCH
AS PRECIPITATION OR FOG.

IAZ001>003-012>014-020>022-031>034-043>046-261500-
   NORTHWEST IOWA

CITY           SKY/WX    TMP DP  RH WIND       PRES   REMARKS
CARROLL *      CLOUDY    52  36  54 W10       29.95S
CHEROKEE *     MOSUNNY   48  39  70 S7        29.92S
DENISON *      CLOUDY    46  37  71 W8        29.97F
LE MARS *      MOSUNNY   52  37  58 SW14      29.91S
ORANGE CITY *  CLOUDY    52  39  62 SW15      29.91R
SHELDON *      PTSUNNY   52  37  58 W17       29.90R
SIOUX CITY     CLOUDY    52  38  58 W12       29.94S
SPENCER        CLOUDY    51  36  56 SW16      29.90S
STORM LAKE *   CLOUDY    52  34  50 SW15      29.92F
$$

IAZ055>058-069>071-079>083-090>094-261500-
   SOUTHWEST IOWA

CITY           SKY/WX    TMP DP  RH WIND       PRES   REMARKS
ATLANTIC *     CLOUDY    45  39  81 SW5       29.97S
AUDUBON *      CLOUDY    48  43  81 CALM      29.97S
CLARINDA *     MOSUNNY   46  41  81 S5        30.01S
COUNCIL BLFS * CLOUDY    46  41  81 SW5       29.97S
CRESTON *      CLOUDY    50  41  71 W5        29.98F
HARLAN  *      CLOUDY    46  41  81 CALM      30.00R
LAMONI         MOSUNNY   53  40  61 W7        29.98R
RED OAK *      MOSUNNY   45  39  81 S5        29.99S
SHENANDOAH *   CLOUDY    46  41  81 SW5       29.99F
$$

IAZ047>049-059>061-072>074-084-261500-
   CENTRAL IOWA

CITY           SKY/WX    TMP DP  RH WIND       PRES   REMARKS
AMES           CLOUDY    52  40  63 VRB3      29.95S
ANKENY *       MOSUNNY   54  36  50 SW5       29.96F
BOONE *        CLOUDY    50  36  57 SW6       29.94S
CHARITON *     CLOUDY    48  39  71 MISG      29.97S
DES MOINES     CLOUDY    51  37  58 CALM      29.96F
GRINNELL*      MOSUNNY   54  32  44 SW6       29.96S
KNOXVILLE *    CLOUDY    48  36  61 SW5       29.95S
MARSHALLTOWN   CLOUDY    48  39  71 W6        29.95R
NEWTON *       CLOUDY    50  36  57 W6        29.95F
PELLA *        CLOUDY    50  38  64 CALM      29.98S
$$

IAZ004>006-015-016-023>025-035-036-261500-
   NORTH CENTRAL IOWA

CITY           SKY/WX    TMP DP  RH WIND       PRES   REMARKS
ALGONA *       CLOUDY    50  37  62 SW13      29.91F
CLARION *      MOSUNNY   50  37  62 SW8       29.94S
ESTHERVILLE    CLOUDY    48  37  65 SW17      29.89S
FORT DODGE *   CLOUDY    50  38  63 SW7       29.94S
MASON CITY     CLOUDY    51  37  58 SW14      29.94S
FOREST CITY *  FAIR      48  37  66 SW9       29.92F
WEBSTER CITY * CLOUDY    52  36  54 SW8       29.92S
IOWA FALLS *   FAIR      52  40  62 SW9       29.94F
$$

IAZ007>011-017>019-026>030-037>042-050>054-066-261500-
   NORTHEAST IOWA

CITY           SKY/WX    TMP DP  RH WIND       PRES   REMARKS
CEDAR RAPIDS   FAIR      50  36  58 S6        29.94S
CHARLES CITY * FAIR      48  46  93 SW7       29.93S
CLINTON *        N/A     48  34  58 MISG      29.97F
DECORAH *      FAIR      50  37  62 SW5       29.92R
DUBUQUE        FAIR      46  35  65 SW9       29.95S
MONTICELLO *   FAIR      50  36  57 S5        29.95S
OELWEIN *      FAIR      52  39  62 SW7       29.94F
WATERLOO       FAIR      49  40  71 CALM      29.94S
$$

IAZ064-065-067-068-078-261500-
   EAST CENTRAL IOWA

CITY           SKY/WX    TMP DP  RH WIND       PRES   REMARKS
DAVENPORT      FAIR      49  34  56 S8        29.98S
IOWA CITY      FAIR      48  36  63 MISG      29.97S
MT. PLEASANT * CLOUDY    50  34  53 SW6       29.97S
MUSCATINE *    FAIR      48  37  66 S5        29.97S
QUAD CITIES    FAIR      51  35  54 SW7       29.96S
$$

IAZ062-063-075>077-085>089-095>099-261500-
   SOUTHEAST IOWA

CITY           SKY/WX    TMP DP  RH WIND       PRES   REMARKS
BURLINGTON     MOSUNNY   50  37  61 S7        29.96S
FAIRFIELD *    CLOUDY    52  34  50 CALM      29.96S HAZE
FORT MADISON * CLOUDY    52  39  62 S5        29.97S
KEOKUK *       CLOUDY    54  41  62 CALM      29.97R
OSKALOOSA *    FAIR      52  34  50 CALM      29.97S
CENTERVILLE *  FAIR      55  41  58 CALM      29.99R
OTTUMWA        CLOUDY    51  36  56 CALM      29.96S
WASHINGTON *   CLOUDY    50  37  62 VRB3      29.97S
$$

ABBREVIATIONS USED IN REMARKS
   TC - TEMPERATURES IN CELSIUS
  WCI - WIND CHILL INDEX
   HX - HEAT INDEX
  VSB - VISIBILITY
$$




USA.gov is the U.S. government's official web portal to all federal, state and local government web resources and services.